Lapse_Rate
4.2 4.0 4.5 3.9 3.3 3.3 3.2 3.1 3.6 3.3 5.3 5.6 5.4 3.8 2.9 2.5 2.1 2.1 2.4 2.5 2.4 2.4 2.8 3.4 3.1 2.9 2.9 3.3 3.5 3.4 3.5 3.4 3.1 3.6 3.1 2.7 2.3 1.8 1.3 1.4 1.7 1.2 1.6
4.7 4.2 4.1 3.5 3.0 2.8 2.9 2.7 4.8 3.7 3.2 5.1 3.6 2.8 2.6 2.4 2.0 2.6 2.5 2.4 1.9 2.0 2.4 3.1 3.2 3.5 2.7 2.7 2.8 2.8 2.7 2.7 3.1 2.8 3.0 2.7 2.1 1.7 1.8 1.9 1.9 1.9 2.0
4.6 4.3 3.7 3.3 2.9 2.6 2.6 2.6 3.2 3.0 2.7 3.1 3.0 2.4 2.2 2.0 1.9 1.5 1.3 1.4 1.1 1.0 1.1 1.3 1.5 2.1 2.1 1.8 2.0 2.1 1.9 1.9 2.7 2.7 3.0 2.7 2.2 2.1 1.8 1.9 2.0 1.6 1.6
5.3 4.3 3.5 3.2 2.7 2.5 2.3 2.6 2.6 2.4 2.0 2.6 2.2 1.8 1.7 1.6 2.1 2.1 1.7 1.3 0.9 0.5 0.5 0.8 1.4 2.4 2.8 2.2 2.2 2.0 1.8 2.3 3.0 3.2 3.4 3.3 3.1 2.9 2.6 2.2 2.1 1.7 1.3
5.1 4.2 4.0 3.0 2.6 3.4 3.3 2.8 2.7 2.5 1.9 2.1 1.4 1.4 1.2 1.7 1.7 1.9 2.0 1.7 1.4 1.1 0.9 1.3 1.9 3.1 3.0 2.8 2.3 2.4 2.5 2.0 2.8 3.6 4.1 4.2 4.1 3.4 3.4 2.7 2.4 2.2 2.0
4.7 4.0 3.2 3.3 2.6 3.3 3.4 3.4 3.3 2.2 1.4 1.8 1.3 1.1 0.6 1.1 -0.2 1.6 2.4 2.6 2.3 2.4 2.0 1.6 1.7 1.9 1.8 2.5 2.8 3.3 3.2 3.1 2.9 4.6 4.4 4.4 4.2 3.8 3.0 2.9 2.6 2.9 3.2
3.2 3.0 3.3 3.3 3.4 3.6 3.3 3.4 3.1 2.4 1.7 1.5 1.0 0.5 -0.4 -0.5 -0.4 1.7 2.7 1.8 1.7 2.0 1.4 1.5 2.2 1.8 1.1 1.1 1.9 2.0 2.4 3.2 3.8 4.4 3.7 3.8 4.2 4.3 3.9 4.1 4.1 4.5 3.6
0.9 0.9 1.6 2.7 3.5 3.7 3.9 3.8 3.8 3.5 3.1 1.4 1.4 0.3 0.1 0.1 -0.4 1.6 2.5 1.8 1.1 1.2 1.4 0.8 0.7 0.8 1.1 1.4 1.1 0.7 0.4 0.8 1.9 2.9 2.0 2.9 4.0 4.2 3.7 3.8 3.2 2.1 2.1
-0.6 -0.6 -0.4 0.3 2.3 4.1 4.5 3.9 3.8 3.9 3.9 3.0 1.9 0.9 0.7 0.3 -0.7 0.4 2.2 1.7 1.1 1.1 0.9 0.6 0.8 1.1 1.5 2.5 2.4 2.1 1.7 1.8 4.0 3.8 3.9 4.2 5.0 4.7 4.4 3.8 4.0 3.9 3.3
-1.9 -1.9 -1.4 -0.2 0.5 3.7 4.0 3.3 3.6 4.0 2.9 2.5 1.8 0.6 0.7 0.6 -0.5 -0.4 2.6 1.9 1.3 1.1 0.7 0.6 1.6 1.0 0.6 2.3 2.8 2.8 2.7 2.5 3.0 3.3 2.9 3.5 3.3 3.4 3.7 3.2 2.0 3.0 5.0
-1.7 -2.3 -2.3 -1.6 -0.9 2.4 3.7 3.9 3.3 2.6 2.7 2.3 1.3 0.7 0.1 -0.1 1.5 -0.6 2.1 4.0 3.6 1.8 1.5 1.1 0.6 0.4 0.1 0.5 1.9 2.9 3.1 2.2 3.3 2.9 2.5 2.4 2.0 1.6 2.0 2.6 2.3 1.7 2.1
-0.7 -1.3 -2.2 -2.1 -1.1 1.5 2.6 3.0 3.0 2.8 2.1 1.5 1.0 0.4 0.5 0.9 -0.1 0.1 0.1 2.8 2.7 2.4 2.4 1.1 1.1 0.1 0.1 1.5 3.0 2.9 1.8 1.8 1.0 1.1 1.1 2.8 2.7 2.3 2.7 3.7 3.9 3.6 3.6
-1.7 -1.5 -1.6 -1.7 0.0 0.5 1.3 1.8 1.6 1.5 1.5 1.1 1.0 1.2 1.1 1.1 1.6 0.5 0.1 1.1 2.4 3.2 2.9 2.2 1.6 0.5 0.8 3.4 2.3 2.4 2.0 1.2 1.3 1.9 2.3 2.2 1.9 2.2 3.3 3.7 4.3 4.6 4.6
-0.7 -0.9 -0.8 -0.9 0.0 0.8 0.8 0.7 1.3 1.1 1.2 1.4 1.5 1.6 1.8 2.1 2.3 2.2 2.6 2.8 2.5 2.1 3.2 3.0 2.1 2.0 2.0 2.8 2.5 1.9 1.8 2.1 2.3 2.3 2.5 1.8 1.3 2.1 2.6 1.9 2.8 2.7 2.9
-0.2 -0.1 -0.6 -1.1 -0.7 -0.4 -1.1 -0.4 0.1 -0.7 1.0 1.9 2.0 2.3 2.4 2.5 1.8 0.0 1.1 2.5 2.7 2.8 3.4 3.2 2.6 1.4 2.0 1.8 2.1 2.1 1.7 1.9 2.8 1.9 2.2 2.3 2.2 2.2 2.7 1.8 2.3 2.1 2.6
-0.2 -0.4 -0.9 -1.2 -1.3 -0.9 -0.4 -1.2 -1.4 -1.8 -2.0 -2.0 0.5 1.6 0.2 -0.3 -0.6 -0.6 -0.5 -0.1 1.1 1.3 3.1 2.2 1.2 1.1 1.9 1.9 2.5 2.4 1.8 2.6 2.0 2.4 2.2 2.3 2.8 3.0 3.1 2.9 2.6 3.2 3.9
0.9 0.6 0.0 -0.3 -0.8 -1.3 -1.3 -0.9 -0.9 -1.3 -2.1 -2.1 -1.2 -0.2 1.1 0.7 -0.1 0.1 0.2 -0.0 1.5 1.8 1.4 1.0 0.9 2.0 1.8 1.5 1.8 2.1 2.6 1.9 1.7 2.2 2.6 3.1 3.4 4.1 4.2 4.1 3.6 4.0 4.4
1.7 1.4 0.7 0.3 0.1 -0.2 -0.5 -0.8 -1.0 -0.6 -0.4 -0.6 -1.4 -1.5 -1.5 -0.9 -0.1 0.5 0.5 0.7 1.6 0.9 0.8 1.5 2.2 1.6 1.7 2.1 2.0 2.6 2.5 2.3 2.6 2.7 3.0 3.3 3.4 3.7 4.2 4.1 3.8 4.0 4.0
2.5 1.8 1.3 0.9 0.5 0.5 0.2 -0.2 -0.5 -0.4 -0.5 -0.9 -1.8 -1.2 -1.9 -1.8 -1.3 -1.0 -1.0 0.6 1.7 1.9 1.1 0.8 0.9 1.6 1.7 1.7 1.8 1.8 2.1 2.6 2.5 3.2 3.3 3.2 3.3 3.4 4.0 3.8 4.0 4.6 4.0
2.0 2.3 1.6 0.6 0.6 0.6 1.1 0.9 0.5 0.4 -0.6 -1.0 -1.1 -0.9 -1.6 -1.3 0.2 0.5 0.2 0.6 0.5 0.6 0.8 2.0 1.5 1.6 1.7 2.0 1.9 2.0 2.4 2.9 2.7 2.4 2.9 2.8 3.0 3.3 3.7 3.9 3.9 4.2 4.1
2.3 2.3 3.7 2.5 2.1 1.5 2.1 1.2 1.3 0.7 0.1 -0.5 -0.3 -0.3 -1.1 -0.3 0.6 0.7 1.3 1.1 1.1 1.0 1.6 1.5 1.6 1.5 1.3 1.5 1.6 1.6 2.0 2.8 2.5 2.6 3.0 3.2 2.7 3.1 3.3 3.0 3.5 4.0 3.9
2.7 3.6 3.5 2.5 2.6 2.8 2.7 2.5 1.9 1.5 1.1 1.0 0.2 0.2 -2.0 -0.4 0.3 1.0 1.2 1.3 1.2 1.2 1.7 1.7 1.6 1.7 2.3 2.4 2.4 2.2 2.2 2.4 2.5 2.4 2.5 2.7 3.0 2.9 3.0 3.5 3.7 3.7 3.9
3.0 3.9 4.0 3.7 3.9 3.6 3.2 2.9 3.4 3.0 3.4 2.5 1.5 1.0 0.7 0.3 0.4 1.0 1.6 1.7 1.9 1.6 2.7 3.3 3.4 2.1 2.9 3.1 3.2 2.5 1.9 2.4 2.7 3.0 2.8 3.0 3.2 3.3 3.1 3.5 4.1 4.1 4.1
3.8 4.0 3.7 3.1 3.6 4.3 3.5 4.1 3.1 3.1 3.5 3.5 2.4 2.3 2.1 2.6 2.9 2.5 2.7 2.8 3.2 1.5 1.2 0.7 -1.3 -1.6 -1.4 -1.8 -1.9 -1.8 -2.3 -2.7 -0.2 3.1 3.8 2.4 2.7 2.7 2.9 3.1 3.3 3.8 3.8
2.7 2.3 2.8 2.4 2.3 2.7 3.7 3.8 3.9 2.8 2.6 2.7 2.9 2.9 2.2 1.7 1.8 1.4 1.2 0.8 0.2 -1.3 -2.1 -2.3 -2.1 -2.1 -2.3 -2.5 -2.6 -2.8 -3.2 -3.3 -2.3 -1.5 0.5 3.0 2.8 3.0 3.0 3.0 3.1 3.3 3.6
2.4 2.1 1.4 1.9 3.0 3.4 3.6 4.6 4.3 3.7 3.5 3.1 2.0 1.9 1.4 0.9 0.5 0.7 0.5 0.7 0.3 -0.8 -1.9 -2.3 -2.5 -2.5 -2.5 -2.8 -2.9 -3.1 -3.4 -3.1 -3.0 -2.3 -0.7 0.9 2.0 3.4 4.5 4.5 4.2 4.1 4.4
Wind_Speed
5 6 5 5 6 6 5 5 5 5 6 6 7 7 7 7 7 7 7 8 8 7 7 6 6 5 4 3 2 2 2 2 4 3 2 3 3 5 8 12 13 13 15
6 5 6 6 6 6 5 5 5 5 6 7 6 6 6 6 6 8 8 8 8 9 7 7 7 4 6 5 3 5 4 3 4 9 2 2 4 4 5 6 9 13 15
6 6 6 7 6 6 6 5 6 7 6 6 6 6 6 5 6 6 6 7 7 7 7 7 6 6 7 4 4 4 3 3 4 7 4 2 2 2 4 4 4 9 11
8 8 7 9 8 5 5 5 6 6 7 5 6 6 6 6 6 6 5 6 6 6 6 7 7 8 7 6 5 5 4 6 7 7 6 4 2 2 2 2 3 3 4
8 8 11 7 7 5 4 6 6 6 6 5 6 6 5 5 3 5 5 6 6 8 7 7 8 12 17 13 4 5 5 5 5 6 4 3 3 3 3 2 2 2 3
7 6 7 7 9 7 5 5 6 7 6 6 6 6 6 4 9 6 5 5 6 6 6 6 6 10 11 15 15 15 6 5 4 3 2 3 2 2 2 4 3 2 2
5 5 5 7 9 8 7 6 7 7 7 6 6 6 5 5 10 7 9 6 6 6 6 5 6 5 7 7 12 14 13 14 8 3 4 2 2 3 4 5 4 1 2
8 6 5 4 5 7 6 6 5 6 7 5 5 6 5 5 10 9 10 7 6 6 6 6 6 5 6 7 7 8 7 7 6 5 6 4 3 3 4 3 3 3 3
5 5 4 3 1 6 8 7 5 5 6 5 5 5 5 5 11 6 7 6 6 6 5 5 5 5 3 6 7 7 6 5 12 14 13 13 13 7 10 4 3 3 1
4 4 4 3 2 3 7 7 4 5 6 6 7 5 6 5 9 6 7 4 5 4 4 5 9 6 6 8 6 4 5 2 3 4 4 6 10 10 10 4 3 4 2
2 5 5 4 5 4 5 6 6 7 7 7 7 5 5 6 6 9 3 4 4 4 3 2 3 6 6 8 8 4 2 2 1 3 3 3 3 4 5 7 6 3 3
3 6 7 6 5 5 6 5 7 8 8 6 5 4 3 4 8 9 9 7 6 4 3 1 1 7 7 5 5 3 4 2 3 4 4 1 1 0 1 5 7 8 6
8 6 5 6 6 6 6 5 5 6 5 4 3 3 2 3 3 8 11 8 7 4 3 4 5 8 8 5 8 7 7 5 4 3 2 2 2 2 2 1 3 4 3
8 5 4 6 6 6 5 4 5 4 4 3 3 3 3 2 3 3 3 3 5 5 4 3 4 5 5 4 5 5 4 3 3 2 0 2 1 2 2 1 0 0 1
7 4 4 4 6 6 5 4 4 3 1 3 3 3 3 3 1 2 3 3 3 2 2 2 3 4 4 4 3 3 3 3 4 2 2 2 2 2 1 0 1 0 2
6 4 4 4 4 4 5 4 10 7 7 7 6 4 1 5 4 4 5 4 4 6 3 3 3 2 2 2 2 1 2 3 2 1 2 1 1 1 2 2 0 1 1
6 6 4 4 4 4 3 4 5 4 6 5 3 4 4 6 4 2 2 4 4 4 2 2 2 2 3 2 2 2 1 1 1 1 0 0 0 1 2 2 2 1 1
6 7 5 4 4 4 4 4 3 4 3 1 2 1 2 4 4 2 2 3 2 3 1 1 0 2 3 3 3 2 1 0 1 1 1 1 1 0 2 2 3 2 2
5 4 5 5 4 5 4 4 4 4 3 3 1 1 3 3 4 3 3 1 2 1 1 2 4 4 3 3 3 3 3 2 2 2 3 3 3 1 2 3 3 3 2
6 10 6 4 5 5 4 4 4 4 4 4 4 4 3 2 2 2 3 2 3 3 4 3 4 4 4 4 3 2 3 3 2 3 4 4 3 2 3 4 3 2 2
4 5 8 5 5 6 7 5 5 4 5 5 5 5 8 5 5 5 3 4 5 4 4 4 4 5 4 4 4 4 4 4 3 4 4 4 4 4 4 5 4 4 3
4 3 3 4 4 5 5 5 5 5 5 5 4 4 10 4 4 4 5 5 5 5 6 4 4 4 5 5 4 4 5 5 5 4 4 4 4 3 3 3 4 3 4
3 3 3 4 4 4 3 3 2 3 4 6 5 4 4 5 5 5 5 5 4 3 6 6 1 3 8 9 9 7 4 5 6 5 5 5 4 4 4 4 3 3 3
4 5 4 4 4 4 4 4 3 5 3 1 3 2 2 3 2 3 4 5 6 11 16 15 14 12 12 13 14 17 15 17 15 13 8 5 5 5 4 4 4 4 4
6 6 6 6 6 5 4 5 5 5 5 6 7 8 7 5 6 7 8 8 11 12 15 16 13 14 17 17 18 19 21 23 19 20 13 7 5 6 5 5 4 4 4
7 7 5 5 4 4 4 4 5 8 8 6 6 6 6 6 6 6 6 6 7 11 12 12 14 16 16 17 19 21 23 26 23 24 16 9 6 6 5 6 8 5 6
Wind_Direction
171 153 149 121 122 112 101 95 89 70 46 48 49 46 35 39 34 44 45 35 43 42 30 48 43 33 43 44 75 141 170 132 119 90 65 62 61 70 63 62 55 55 56
210 157 150 140 133 123 127 119 102 85 51 75 62 54 44 44 37 47 53 44 41 42 29 40 33 26 34 34 58 72 82 93 132 133 115 70 68 54 73 79 71 65 63
189 157 150 149 145 147 160 143 112 100 84 74 69 64 49 56 60 54 51 56 50 42 36 40 25 32 40 30 33 48 57 53 107 135 128 108 98 92 82 69 73 71 64
185 162 171 174 165 167 147 130 108 105 94 99 83 72 59 54 65 71 70 65 61 56 47 43 35 32 33 28 43 48 55 75 85 106 116 121 102 114 70 103 84 56 63
187 176 190 159 133 122 131 119 118 95 99 109 96 69 62 60 41 92 90 81 71 61 51 51 58 59 55 51 48 45 66 72 88 101 107 118 119 148 162 105 78 95 50
194 184 152 151 132 148 147 136 119 104 104 97 86 82 59 38 353 50 90 88 91 80 60 44 36 41 41 46 50 58 79 105 99 103 101 111 94 108 117 138 146 167 124
120 112 128 146 143 164 162 166 138 123 122 108 99 86 56 18 4 63 77 70 76 86 76 62 56 40 52 53 46 47 46 55 66 98 105 81 111 148 143 160 208 150 119
82 73 62 73 138 168 163 143 135 127 128 125 110 98 76 21 12 81 86 83 78 75 82 78 79 66 50 76 70 58 45 41 44 77 93 87 86 112 150 170 141 96 66
78 77 60 17 83 181 164 152 136 126 123 123 117 106 76 28 12 42 101 93 85 75 68 65 70 70 35 100 88 80 59 37 58 65 75 71 67 83 134 108 109 120 148
87 80 69 51 7 180 149 144 122 119 110 107 90 80 63 39 9 17 136 126 109 97 56 48 41 41 51 144 108 100 79 0 40 46 17 34 49 58 61 49 161 178 141
86 89 67 35 37 40 105 119 116 113 105 98 90 70 63 26 8 9 142 153 138 119 104 62 37 31 59 70 96 104 160 189 69 99 107 72 36 23 50 43 43 138 128
79 56 58 46 38 38 80 93 113 120 115 105 102 78 39 28 18 7 40 109 109 114 127 125 58 58 45 80 90 81 48 120 120 110 124 130 78 4 17 69 56 55 78
92 77 61 57 50 45 60 80 93 97 105 105 112 105 80 47 15 34 38 39 77 90 100 99 52 37 19 28 17 47 54 63 89 85 119 217 233 222 163 68 52 55 34
96 94 85 82 70 58 58 54 77 84 101 115 123 122 119 90 64 34 48 62 55 65 47 31 38 38 54 21 29 20 27 84 92 99 72 295 304 19 1 28 265 244 46
110 105 88 83 86 81 61 48 79 51 93 140 140 138 138 139 119 53 46 37 46 18 55 31 26 11 356 342 338 48 13 36 91 116 92 61 31 30 315 279 178 332 187
126 128 131 121 107 106 108 83 46 51 61 81 106 132 94 109 128 78 58 37 44 27 50 33 349 320 46 26 26 35 27 34 36 50 60 75 66 40 323 326 235 173 208
147 152 147 131 127 128 121 128 129 24 49 56 90 135 171 158 152 117 48 10 59 60 65 3 327 126 129 149 127 101 132 306 309 4 33 146 195 309 359 348 314 297 302
155 154 157 153 147 149 158 155 137 146 157 216 305 352 173 178 194 215 348 47 35 43 126 241 232 204 209 152 147 140 134 50 50 195 257 267 275 175 324 324 341 306 286
163 178 179 162 163 169 166 162 166 169 179 176 190 9 247 264 301 304 2 160 222 267 230 252 219 195 231 181 179 189 183 213 239 274 286 287 292 306 294 266 289 299 268
200 197 185 166 168 176 184 182 181 189 192 200 198 209 173 126 236 239 228 224 247 262 285 249 191 195 220 201 203 208 222 238 246 259 273 269 275 260 271 267 269 253 261
147 155 152 147 169 173 188 198 197 186 204 213 217 209 185 180 208 220 226 232 237 221 249 234 185 190 202 206 216 222 234 251 249 259 271 289 285 260 257 254 255 255 250
145 157 139 138 150 174 176 171 184 201 206 215 227 217 186 216 230 245 257 255 245 232 215 203 236 196 184 185 207 221 230 240 252 250 254 262 274 267 252 255 269 270 281
168 189 161 165 127 134 136 138 122 127 203 210 188 193 184 217 226 246 251 262 280 272 237 206 312 19 16 13 14 12 320 285 264 252 248 249 249 241 217 225 234 253 257
155 142 124 102 101 94 67 72 67 73 61 148 177 163 65 32 342 317 351 4 56 57 58 71 57 57 49 37 31 24 11 353 342 305 263 252 270 245 222 227 235 245 256
85 93 97 93 91 86 67 62 59 46 50 61 76 79 76 69 58 46 53 61 69 70 61 57 49 49 48 41 30 23 19 19 15 7 345 298 210 232 255 274 254 244 249
92 90 82 77 80 86 88 73 90 94 83 68 77 82 78 74 65 61 59 68 77 78 74 66 55 52 47 38 31 24 24 19 9 6 3 341 326 312 272 251 253 246 245